| Shipment Reliability and Frequency | Volume of Goods |
|---|---|
| Avg. Shipments per Month: 1.92 | Average TEU per month: 2.50 |
| Active Months: 7 | Average TEU per Shipment: 1.30 |
| Shipment Frequency Std. Dev.: 1.88 |
| Company Name | Shipments |
|---|---|
| EMONS LOGISTIK GMBH | 20 shipments |
| EMONS | 3 shipments |
| HS Code | Shipments |
|---|---|
| 845730.0 Machining centres, unit construction machines (single station) and multi-station transfer machines for working metal | 17 shipments |
| 890391.0 Yachts and other vessels; for pleasure or sports, rowing boats and canoes | 5 shipments |
| 841590.0 Air conditioning machines; comprising a motor driven fan and elements for changing the temperature and humidity, including those machines in which the humidity cannot be separately regulated | 1 shipments |
| Arrival Date | Bill Of Lading | Consignee | Weight | HS Code | Description |
|---|---|---|---|---|---|
| 2026-03-27 | CHSL546410634MTY | EMONS LOGISTIK GMBH | 7383.0 kg | 841590.0 | AUTOMOTIVE PARTS |
| 2026-03-21 | CHSL542213334MTY | EMONS LOGISTIK GMBH | 6359.0 kg | 890391.0 | TRANSFER CASE M- PCS M - PCS |
| 2026-03-20 | CHSL545757143MTY | EMONS LOGISTIK GMBH | 3858.0 kg | 845730.0 | TRANSFER CASE |
| 2026-03-06 | CHSL542582733MTY | EMONS LOGISTIK GMBH | 1412.0 kg | 845730.0 | TRANSFER CASE |
| 2026-03-06 | CHSL543998511MTY | EMONS LOGISTIK GMBH | 707.0 kg | 845730.0 | TRANSFER CASE PIECES |
| 2026-02-27 | CHSL543408071MTY | EMONS LOGISTIK GMBH | 4938.0 kg | 845730.0 | TRANSFER CASE M - PCS. |
| 2026-02-05 | CHSL541276972MTY | EMONS LOGISTIK GMBH | 6350.0 kg | 845730.0 | TRANSFER CASE PCS |
| 2026-01-29 | CHSL538694435MTY | EMONS LOGISTIK GMBH | 16932.0 kg | 845730.0 | TRANSFER CASE TRANSFER CASE M- PCS. |
| 2026-01-04 | CHSL537157964MTY | EMONS LOGISTIK GMBH | 8471.0 kg | 845730.0 | TRANSFER CASE M - PCS |
| 2026-01-02 | CHSL537907924MTY | EMONS LOGISTIK GMBH | 4938.0 kg | 845730.0 | TRANSFER CASE |
| 2025-12-27 | CHSL536430237MTY | EMONS LOGISTIK GMBH | 4233.0 kg | 845730.0 | TRANSFER CASE M - PCS |
| 2025-12-12 | CHSL535935376MTY | EMONS LOGISTIK GMBH | 8466.0 kg | 845730.0 | TRANSFER CASE |
| 2025-12-05 | CHSL534275940MTY | EMONS LOGISTIK GMBH | 5647.0 kg | 845730.0 | TRANSFER CASE |
| 2025-12-04 | CHSL534940823MTY | EMONS LOGISTIK GMBH | 7760.0 kg | 845730.0 | TRANSFER CASE |
| 2025-11-25 | CHSL529123045MTY | EMONS LOGISTIK GMBH | 4233.0 kg | 845730.0 | TRANSFER CASE M - PCS |
| 2025-11-16 | CHSL532131829MTY | EMONS LOGISTIK GMBH | 8466.0 kg | 845730.0 | TRANSFER CASE M - PCS |
| 2025-11-16 | CHSL532873313MTY | EMONS | 6350.0 kg | 845730.0 | TRANSFER CASE M - PCS |
| 2025-11-16 | CHSL533573123MTY | EMONS LOGISTIK GMBH | 7059.0 kg | 890391.0 | TRANSFER CASE M - PC M - PCS |
| 2025-10-31 | CHSL531399274MTY | EMONS LOGISTIK GMBH | 6837.0 kg | 890391.0 | TRANSFER CASE M PCS M PCS |
| 2025-10-24 | CHSL530669237MTY | EMONS LOGISTIK GMBH | 9882.0 kg | 890391.0 | TRANSFER CASE M - PCS M - PCS |
| 2025-09-29 | CHSL528353020MTY | EMONS | 8466.0 kg | 845730.0 | TRANSFER CASE |
| 2025-09-22 | CHSL527538846MTY | EMONS LOGISTIK GMBH | 9880.0 kg | 890391.0 | TRANSFER CASE M - PCS M - PCS |
| 2025-09-14 | CHSL526901327MTY | EMONS | 7760.0 kg | 845730.0 | TRANSFER CASE PART NUMBER M PCS |
| BLVD MAGNA 1975 PARQUE INDUSTRIAL SANTA |
|---|